This demonstration page uses our WeatherBlox Daily Observations layout. Learn more.

Left ArrowRight Arrow

34.16533, -84.80231

Hourly Observations for August 26, 2017

Temp ( °F °C ) Dew Point ( °F °C ) Humidity (%) Winds ( mph kmh ) Pressure ( in mb ) Visibility ( mi km ) Precip ( " mm )
12:53 am 00:53 Clear 68 20 68 20 100 100 Calm 30.08 1019 10 16 0.00 0.00
1:53 am 01:53 Clear 67 19.4 67 19.4 100 100 Calm 30.08 1019 10 16 0.00 0.00
2:53 am 02:53 Clear 68 20 68 20 100 100 Calm 30.07 1018 10 16 0.00 0.00
3:17 am 03:17 Mostly Cloudy 68 20 68 20 100 100 Calm 30.09 1019 10 16 0.00 0.00
3:37 am 03:37 Partly Cloudy 68 20 68 20 100 100 Calm 30.09 1019 10 16 0.00 0.00
3:53 am 03:53 Mostly Clear 67 19.4 67 19.4 100 100 Calm 30.07 1018 10 16 0.00 0.00
4:53 am 04:53 Partly Cloudy 67 19.4 67 19.4 100 100 Calm 30.08 1019 10 16 0.00 0.00
5:53 am 05:53 Mostly Clear 67 19.4 67 19.4 100 100 Calm 30.09 1019 9 14 0.00 0.00
6:53 am 06:53 Clear 66 18.9 66 18.9 100 100 Calm 30.10 1019 9 14 0.00 0.00
7:53 am 07:53 Sunny 70 21.1 69 20.6 97 97 Calm 30.10 1019 9 14 0.00 0.00
8:53 am 08:53 Sunny 75 23.9 69 20.6 82 82 NE 3 6 30.11 1020 10 16 0.00 0.00
9:53 am 09:53 Sunny 77 25 69 20.6 77 77 NNE 6 9 30.11 1020 10 16 0.00 0.00
10:53 am 10:53 Partly Cloudy 80 26.7 71 21.7 74 74 ENE 6 9 30.11 1020 10 16 0.00 0.00
11:53 am 11:53 Sunny 82 27.8 70 21.1 67 67 NE 6 9 30.11 1020 10 16 0.00 0.00
12:53 pm 12:53 Mostly Sunny 83 28.3 70 21.1 65 65 VRB 3 6 30.10 1019 10 16 0.00 0.00
1:53 pm 13:53 Mostly Sunny 86 30 71 21.7 61 61 VRB 3 6 30.08 1019 10 16 0.00 0.00
2:53 pm 14:53 Mostly Sunny 85 29.4 69 20.6 59 59 E 6 9 30.06 1018 10 16 0.00 0.00
3:53 pm 15:53 Partly Cloudy 86 30 69 20.6 57 57 SE 5 7 30.05 1018 10 16 0.00 0.00
4:53 pm 16:53 Sunny 86 30 68 20 55 55 Calm 30.03 1017 10 16 0.00 0.00
5:53 pm 17:53 Mostly Sunny 86 30 69 20.6 57 57 S 3 6 30.03 1017 10 16 0.00 0.00
6:53 pm 18:53 Partly Cloudy 83 28.3 71 21.7 67 67 S 3 6 30.04 1017 10 16 0.00 0.00
7:33 pm 19:33 Cloudy with Thunderstorms 78 25.6 74 23.3 87 87 Calm 30.03 1017 8 13 0.02 0.51
7:53 pm 19:53 Mostly Cloudy with Thunderstorms 75 23.9 73 22.8 94 94 SE 7 11 30.05 1018 10 16 0.02 0.51
8:11 pm 20:11 Partly Cloudy with Nearby Thunderstorms 74 23.3 71 21.7 91 91 SSE 6 9 30.06 1018 10 16 0.00 0.00
8:32 pm 20:32 Mostly Cloudy 73 22.8 70 21.1 90 90 Calm 30.06 1018 10 16 0.00 0.00
8:53 pm 20:53 Mostly Clear 73 22.8 69 20.6 87 87 ENE 3 6 30.05 1018 10 16 0.00 0.00
9:53 pm 21:53 Mostly Clear 71 21.7 69 20.6 94 94 Calm 30.06 1018 10 16 0.00 0.00
10:53 pm 22:53 Mostly Cloudy 70 21.1 70 21.1 100 100 Calm 30.08 1019 10 16 0.00 0.00
11:53 pm 23:53 Partly Cloudy 69 20.6 69 20.6 100 100 SE 3 6 30.07 1018 10 16 0.00 0.00

Powered by AerisWeather